Location: Carrières
(48.9495°N, 2.0407°E)
Time: 16:27:57
(UTC+00:00)

Vanguard 2 Rocket - All Passes

Search period start: 13 April 2024 00:00
Search period end: 23 April 2024 00:00
Orbit: 555 x 3307 km, 32.9° (Epoch: 13 April)

Date Brightness Start Highest point End Pass type
(mag) Time Alt. Az. Time Alt. Az. Time Alt. Az.
13 Apr - 01:42:56 10° WSW 02:00:13 43° S 02:12:10 10° ESE visible
13 Apr - 04:00:56 10° W 04:14:01 30° SSW 04:22:52 10° SSE visible
13 Apr - 20:17:10 10° SSE 20:27:00 16° SE 20:36:54 10° ESE visible
13 Apr - 22:24:46 10° SSW 22:41:21 35° SSE 22:56:06 10° E visible
14 Apr - 00:38:47 10° WSW 00:56:51 45° S 01:10:21 10° ESE visible
14 Apr - 02:55:54 10° WSW 03:11:34 37° SSW 03:22:10 10° SE visible
14 Apr - 05:15:49 10° WSW 05:24:00 17° SW 05:30:17 10° S daylight
14 Apr - 21:22:56 10° SSW 21:37:54 29° SSE 21:52:28 10° E visible
14 Apr - 23:35:10 10° SW 23:53:13 43° S 00:08:04 10° ESE visible
15 Apr - 01:51:13 10° WSW 02:08:38 43° SSW 02:20:55 10° SE visible
15 Apr - 04:09:47 10° W 04:22:10 26° SW 04:30:56 10° SSE visible
15 Apr - 20:22:13 10° S 20:34:45 22° SE 20:47:47 10° E visible
15 Apr - 22:32:11 10° SW 22:49:29 40° SSE 23:05:14 10° E visible
16 Apr - 00:46:56 10° WSW 01:05:14 46° S 01:19:11 10° ESE visible
16 Apr - 03:04:29 10° W 03:19:48 34° SSW 03:30:32 10° SSE visible
16 Apr - 05:26:25 10° WSW 05:31:51 13° SW 05:36:29 10° SSW daylight
16 Apr - 19:23:19 10° SSE 19:32:00 15° SE 19:41:16 10° ESE visible
16 Apr - 21:29:57 10° SSW 21:45:53 35° SSE 22:01:47 10° E visible
16 Apr - 23:43:10 10° WSW 00:01:31 46° S 00:16:56 10° ESE visible
17 Apr - 01:59:38 10° WSW 02:16:55 41° SSW 02:29:28 10° SE visible
17 Apr - 04:19:02 10° W 04:30:06 21° SW 04:38:27 10° S visible
17 Apr - 20:28:36 10° SSW 20:42:33 28° SE 20:57:34 10° E visible
17 Apr - 22:40:01 10° SW 22:57:41 44° SSE 23:14:09 10° ESE visible
18 Apr - 00:55:16 10° WSW 01:13:32 45° S 01:27:49 10° SE visible
18 Apr - 03:13:16 10° W 03:27:51 30° SW 03:38:33 10° SSE visible
18 Apr - 19:28:23 10° S 19:39:37 21° SE 19:52:13 10° E visible
18 Apr - 21:37:30 10° SW 21:53:54 40° SSE 22:10:48 10° E visible
18 Apr - 23:51:24 10° WSW 00:09:48 47° S 00:25:38 10° ESE visible
19 Apr - 02:08:13 10° W 02:25:03 37° SSW 02:37:44 10° SE visible
19 Apr - 04:28:59 10° W 04:37:51 16° SW 04:45:05 10° SSW daylight
19 Apr - 18:30:23 10° SSE 18:37:10 14° SE 18:44:37 10° ESE daylight
19 Apr - 20:35:46 10° SSW 20:50:24 34° SSE 21:06:47 10° E visible
19 Apr - 22:48:06 10° WSW 23:05:53 47° S 23:22:54 10° ESE visible
20 Apr - 01:03:44 10° WSW 01:21:45 43° SSW 01:36:15 10° SE visible
20 Apr - 03:22:22 10° W 03:35:42 25° SW 03:46:03 10° S visible
20 Apr - 19:34:53 10° S 19:47:18 27° SE 20:01:58 10° E visible
20 Apr - 21:45:27 10° SW 22:01:59 44° SSE 22:19:34 10° ESE visible
20 Apr - 23:59:48 10° WSW 00:18:02 47° S 00:34:09 10° ESE visible
21 Apr - 02:16:59 10° W 02:33:02 33° SSW 02:45:38 10° SSE visible
21 Apr - 04:40:57 10° WSW 04:45:26 12° SW 04:49:32 10° SW daylight
21 Apr - 18:35:14 10° S 18:44:42 19° SE 18:55:55 10° E daylight
21 Apr - 20:43:26 10° SW 20:58:20 39° SSE 21:15:41 10° E visible
21 Apr - 22:56:26 10° WSW 23:14:05 48° S 23:31:27 10° ESE visible
22 Apr - 01:12:21 10° W 01:29:49 39° SSW 01:44:23 10° SE visible
22 Apr - 03:32:03 10° W 03:43:23 19° SW 03:52:46 10° S visible
22 Apr - 17:38:56 10° SE 17:42:36 11° SE 17:46:33 10° ESE daylight
22 Apr - 19:42:10 10° SSW 19:55:06 32° SSE 20:11:07 10° E visible
22 Apr - 21:53:40 10° WSW 22:10:08 47° S 22:28:11 10° ESE visible
